Starlink 35408

operational
NORAD ID: 65859 Int'l Des: 2025-223 Owner: SPXS Country: US Constellation: starlink
NOTLE

About Starlink 35408

Description loading...

Live Position

Loading 3D Globe...

Upcoming Passes

Altitude History

Altitude vs Time

uPlot chart will show altitude changes over time

Two-Line Element Set

1 65859U 25223F 25318.85680957 .00054020 00000-0 13493-2 0 9997
2 65859 53.1566 109.0186 0001279 62.1629 297.9505 15.39656917 6602
Epoch: Nov 14, 2025 • Age: 7 hours

Current Status

Altitude 452.6 km
Velocity 7.65 km/s
Sub-Earth Point 52.56°N, 82.71°E
Launch Date Oct 3, 2025
Age 0.1 years
Type internet

Technical Details

Classification Payload
Mass 575.00 kg
Dry Mass 530.00 kg
Total Mass 575.00 kg
Length 0.30 m
Diameter 4.10 m
Span 29.00 m
Shape Box + pan
Manufacturer SPXS
Bus Type Starlink V2MO
Phase Status In Orbit
Owner/State SPXS/US

Large Constellations

Loading constellations...